SCP
-0 -0 -0 -0 -0 -0 -0 -0 0 -0 -0 0 -0 0 -0 -0 -0 0 -0 -0 -0 -0 -0 -0 -0 -0 -0 -0 -0 -0 -0 0 0 0 0 0 -0 -0 -0 -0 -0 -0 -0 -0 -0 -0 -0 -0 -0
-0 0 0 -0 -0 -0 0 0 -0 -0 -0 0 -0 0 -0 -0 0 0 -0 -0 -0 -0 -0 -0 -0 -0 -0 -0 -0 -0 -0 -0 -0 0 0 -0 -0 -0 -0 -0 -0 -0 -0 -0 -0 -0 -0 -0 0
-0 0 0 -0 -0 -0 -0 0 0 0 -0 0 0 0 0 0 0 0 -0 -0 -0 -0 -0 -0 -0 -0 -0 -0 -0 -0 -0 -0 -0 -0 -0 0 -0 -0 -0 -0 -0 -0 -0 -0 0 -0 -0 0 -0
0 0 -0 -0 -0 0 0 0 0 -0 0 0 -0 0 -0 0 -0 0 -0 -0 -0 -0 -0 -0 -0 -0 -0 -0 -0 -0 -0 -0 -0 -0 -0 -0 -0 -0 -0 -0 0 -0 -0 -0 0 0 0 0 0
-0 0 -0 0 0 0 0 0 0 0 0 0 -0 0 -0 0 0 -0 -0 -0 -0 -0 -0 -0 -0 -0 -0 -0 -0 -0 -0 -0 -0 -0 -0 -0 -0 0 -0 -0 -0 0 -0 -0 0 0 0 0 0
0 -0 -0 0 0 0 0 0 0 0 0 0 -0 0 0 0 -0 -0 -0 -0 0 0 -0 -0 -0 0 -0 -0 -0 0 0 0 0 0 0 0 0 0 0 -0 -0 -0 -0 -0 -0 0 0 0 -0
-0 0 -0 0 0 0 0 0 0 0 0 0 0 0 0 0 0 -0 -0 0 0 0 0 0 0 0 0 0 0 0 0 0 0 0 0 0 0 0 0 0 -0 -0 -0 -0 -0 -0 -0 -0 -0
0 0 -0 -0 0 0 0 0 0 0 0 0 -0 0 -0 -0 -0 -0 -0 -0 -0 -0 -0 0 0 0 0 0 0 0 0 0 0 0 0 0 -0 -0 -0 -0 -0 -0 -0 -0 -0 -0 -0 -0 -0
-0 0 0 0 0 0 0 0 0 0 0 -0 0 0 -0 -0 -0 -0 0 -0 -0 -0 -0 -0 -0 -0 0 0 0 0 0 0 0 0 0 0 -0 -0 0 0 0 -0 -0 -0 -0 -0 -0 -0 -0
-0 0 0 0 0 0 0 0 0 -0 0 0 0 0 -0 -0 -0 -0 -0 0 -0 -0 -0 -0 -0 -0 -0 0 0 0 0 0 0 0 0 -0 -0 0 0 0 0 -0 -0 -0 -0 -0 -0 -0 -0
0 0 0 0 0 0 0 0 0 0 0 0 0 -0 -0 -0 -0 -0 -0 -0 -0 0 0 0 0 0 0 0 0 0 0 0 0 0 0 -0 0 0 0 0 0 0 -0 -0 -0 -0 -0 0 -0
0 0 0 0 0 0 0 0 0 0 0 0 0 0 0 0 -0 -0 -0 -0 -0 -0 0 0 0 0 0 0 0 0 0 0 0 0 0 -0 0 0 0 0 0 0 0 -0 -0 -0 0 -0 -0
0 0 0 0 0 0 0 0 0 0 0 0 0 0 0 0 0 0 0 0 0 0 0 0 0 0 1 1 0 0 0 0 0 0 0 0 0 0 0 0 0 0 0 0 0 0 0 0 -0
0 0 0 0 0 0 0 0 0 0 0 0 0 0 0 0 0 0 0 0 0 0 0 0 0 1 0 1 1 0 0 0 0 0 0 0 0 0 0 0 0 0 0 0 0 0 0 0 0
0 0 0 0 0 0 0 0 0 0 0 0 0 0 0 0 0 0 0 0 0 0 0 0 0 0 1 1 1 2 1 0 0 0 1 0 0 0 0 0 0 0 0 0 0 0 0 0 -0
-0 0 -0 0 0 0 0 0 0 0 0 0 0 0 0 0 0 0 0 0 0 1 1 0 0 0 0 0 1 1 1 0 0 0 0 1 0 0 1 0 0 0 0 0 0 0 0 0 1
-0 0 0 0 0 0 0 0 0 0 0 0 0 0 0 0 0 0 0 0 0 1 1 1 1 0 1 1 0 0 0 0 1 0 0 1 1 0 1 0 0 0 0 0 0 0 0 0 0
0 0 0 0 0 0 0 0 0 0 0 0 0 0 0 0 0 1 1 1 1 1 1 2 1 1 2 1 1 1 0 1 1 1 1 1 1 1 1 1 1 1 0 0 0 1 1 2 0
-0 0 -0 0 0 0 0 0 0 0 0 0 0 1 1 1 1 1 1 2 2 3 3 2 2 2 2 1 2 2 1 1 0 0 1 2 2 1 1 0 1 1 1 3 4 2 1 1 1
0 -0 0 0 0 0 0 -0 0 0 0 0 0 0 0 1 1 1 1 1 3 4 4 4 3 2 2 2 2 2 1 1 1 1 2 1 2 1 2 1 2 3 3 3 3 3 2 1 1
0 0 0 0 0 -0 0 -0 0 0 0 0 0 0 0 0 0 0 0 0 0 1 2 5 5 4 3 2 3 4 4 4 2 2 2 2 1 1 1 1 2 2 2 1 2 1 1 1 1
0 0 0 0 0 0 0 0 0 0 0 0 0 0 0 0 0 0 0 0 0 0 0 2 2 4 5 3 4 4 3 4 3 3 2 2 1 2 3 3 3 3 3 2 2 2 2 1 0
0 0 0 0 0 0 0 0 0 0 0 0 0 0 0 0 0 0 0 0 0 0 0 0 0 0 1 3 5 6 4 6 9 7 10 14 6 3 3 2 3 3 1 0 1 1 0 1 1
0 0 0 0 0 0 -0 0 0 0 0 0 0 0 0 0 0 0 0 0 0 0 0 0 0 0 0 0 1 1 1 5 4 5 9 10 5 5 3 4 5 2 1 1 1 1 0 0 0
0 0 0 0 0 0 0 0 0 0 0 0 0 0 0 0 0 0 0 0 0 0 0 0 0 0 0 0 0 0 0 0 0 0 1 1 2 2 2 3 2 1 1 1 1 1 0 0 0
0 0 0 0 0 0 0 0 0 0 0 0 0 0 0 0 0 0 0 0 0 0 0 0 0 0 0 0 0 0 0 0 0 1 1 1 1 0 0 0 1 1 2 2 2 2 1 0 0
0 0 0 0 0 0 0 0 0 0 0 0 0 0 0 0 0 0 0 0 0 0 0 0 0 0 0 0 0 0 0 0 0 0 0 0 0 0 0 0 0 0 1 1 2 2 2 1 1
0 0 0 0 0 0 0 0 0 0 0 0 0 0 0 0 -0 0 0 0 0 0 0 0 0 0 0 0 0 0 0 0 0 0 0 0 0 0 0 0 0 0 0 0 1 1 1 1 1
0 0 0 0 0 0 0 0 0 0 0 0 0 0 0 0 0 0 0 0 0 0 0 0 0 0 0 0 0 0 0 0 0 0 0 0 0 0 0 0 0 0 0 0 1 1 1 0 1
0 0 0 0 0 0 0 0 0 0 0 0 0 0 0 0 0 0 0 0 0 0 0 0 0 0 0 0 0 0 0 0 0 0 0 0 0 0 0 0 0 0 0 0 0 0 0 0 0
Wind_Speed_500mb
23 25 25 33 16 18 15 32 12 20 7 15 9 16 28 21 28 9 25 27 41 44 50 47 42 37 30 29 29 27 26 24 22 20 20 20 18 16 16 15 15 15 16 18 20 23 23 24 27
13 22 26 32 21 27 10 17 23 15 19 7 5 9 6 29 22 18 32 35 46 42 50 47 43 38 33 29 30 28 25 23 21 20 18 16 15 14 13 12 10 9 11 13 16 18 19 18 15
11 17 27 25 25 31 17 16 20 9 2 9 1 1 12 18 14 20 20 46 47 42 43 46 42 38 35 33 29 27 24 22 20 17 16 14 12 10 9 9 8 7 9 10 12 14 16 15 13
11 18 25 20 32 22 17 18 7 8 5 7 2 7 20 12 5 14 39 50 46 42 40 45 41 39 36 33 31 28 24 20 18 16 14 12 10 10 8 6 5 4 6 10 13 14 13 14 13
15 23 22 22 34 16 6 6 13 7 7 3 8 12 26 14 17 28 48 49 46 43 38 47 43 41 37 34 31 28 24 21 18 16 14 11 9 6 5 3 2 3 5 10 11 14 16 15 13
25 19 23 23 26 12 6 9 14 12 4 7 11 14 16 15 25 38 45 47 44 44 39 47 44 42 39 35 31 27 24 20 18 15 12 10 8 5 3 1 1 3 4 8 13 13 14 17 16
29 17 28 20 14 13 5 17 10 13 7 14 2 13 19 19 30 40 41 42 41 40 38 47 46 45 41 37 32 27 23 20 16 13 10 7 6 5 2 1 2 1 2 5 11 13 12 14 15
23 17 28 18 11 12 9 16 12 10 23 4 7 10 31 31 37 40 40 40 39 39 37 40 42 44 43 40 35 29 25 21 19 16 13 9 5 3 2 0 4 4 6 5 8 10 11 10 11
16 18 23 10 6 16 6 13 10 4 14 14 12 23 32 41 41 40 42 40 40 39 39 38 39 38 35 32 37 34 30 27 24 20 16 11 4 3 6 2 2 5 11 13 12 10 7 8 8
22 20 9 16 17 11 6 11 12 15 14 21 26 27 35 41 42 43 44 45 44 43 42 40 41 40 37 31 31 37 34 32 28 24 20 15 10 10 11 15 4 7 10 12 11 10 14 13 3
23 25 18 7 9 12 15 20 9 12 14 31 0 33 27 33 35 37 37 37 41 42 44 44 45 47 45 40 33 32 28 27 26 26 24 18 19 19 20 10 9 9 9 5 1 5 8 7 8
22 6 7 3 2 15 17 18 22 14 26 16 9 10 20 23 27 32 32 34 36 41 44 45 46 48 44 37 34 29 30 27 26 27 30 24 23 20 14 14 11 11 13 9 11 8 10 6 8
20 8 7 10 13 15 14 26 19 16 13 7 3 6 11 18 21 22 26 28 31 39 43 46 47 49 51 49 38 31 32 31 28 27 29 27 23 21 18 17 17 13 13 12 11 9 7 8 7
5 7 15 13 17 12 16 23 20 24 3 12 7 10 9 12 15 21 21 24 27 30 40 46 48 52 50 51 43 39 32 35 36 31 29 32 27 25 22 22 20 20 18 14 14 15 13 11 12
18 22 27 21 10 12 11 23 30 31 2 17 20 12 9 14 18 18 18 25 26 30 36 43 47 52 56 62 55 45 50 42 35 34 37 34 36 30 29 24 23 24 23 22 19 18 19 16 20
24 26 26 26 9 13 18 24 24 3 6 19 22 16 13 18 21 24 20 21 22 29 33 39 44 50 52 49 58 61 42 35 35 33 35 38 35 38 30 26 25 24 26 25 22 22 22 23 20
21 28 18 19 9 9 16 25 20 4 5 16 10 12 18 18 17 21 24 21 20 26 30 36 43 46 46 47 41 42 40 40 38 36 35 35 34 31 35 25 25 28 27 28 26 24 24 26 22
8 12 10 16 16 9 22 23 7 8 6 4 8 18 21 17 25 29 31 28 27 16 24 29 38 43 43 35 41 39 41 40 39 37 36 39 35 35 36 36 32 26 26 28 25 26 25 19 26
15 11 15 7 6 11 25 23 13 16 9 10 21 19 21 25 31 34 28 26 22 17 14 24 31 39 44 42 39 40 39 37 35 36 37 55 47 40 44 34 28 30 25 28 23 21 28 25 21
9 15 16 8 8 15 25 27 22 14 21 14 19 20 26 32 32 40 39 29 20 10 12 22 28 35 39 41 41 37 37 36 37 38 41 41 50 39 41 44 45 40 39 38 35 23 26 36 31
16 15 16 18 22 32 32 37 31 25 24 16 18 24 31 33 35 37 41 36 25 11 5 6 23 31 40 41 37 37 35 37 37 36 36 38 39 41 42 44 44 46 43 41 48 52 47 56 37
26 13 12 21 22 22 5 14 16 35 30 18 18 27 29 31 32 35 39 41 39 28 12 15 18 23 33 42 39 41 38 38 38 35 38 37 37 37 36 40 40 42 36 37 35 46 54 43 34
22 16 23 27 27 28 34 21 1 38 30 17 22 27 29 28 31 34 37 40 46 42 23 2 16 24 25 31 34 35 43 34 34 34 37 40 38 42 39 37 38 36 37 41 37 54 61 58 37
20 27 31 32 31 28 40 21 14 11 18 12 21 26 25 25 25 27 32 37 49 51 45 36 14 9 13 19 34 30 29 30 39 39 31 25 31 28 31 31 35 32 26 26 27 28 46 36 50
20 24 20 17 21 16 17 11 20 20 16 16 18 22 22 21 20 23 28 32 42 47 50 38 46 37 39 29 20 9 10 14 19 33 33 31 34 18 14 6 29 24 18 22 26 33 38 61 66
24 14 16 27 23 18 21 14 18 18 17 15 19 18 15 16 16 23 25 29 32 40 43 42 34 34 37 40 39 34 26 28 21 24 14 6 10 11 10 8 27 16 10 20 31 37 37 40 50
19 17 17 19 31 25 31 20 23 16 13 11 8 14 10 9 9 17 21 22 28 30 30 31 33 35 38 36 39 40 33 28 20 17 12 13 14 12 11 7 3 19 4 9 21 27 35 37 38
18 19 13 16 15 23 23 18 4 21 10 7 10 10 12 5 11 14 18 18 13 19 20 21 28 24 28 28 29 28 29 29 25 19 14 12 5 9 12 20 24 25 15 17 19 14 23 28 36
11 11 15 14 19 16 20 7 15 13 12 10 15 11 14 17 14 14 6 4 10 10 6 17 24 27 29 26 27 28 30 30 26 19 16 12 7 8 12 7 15 20 21 25 27 28 27 22 28
19 25 23 16 20 15 20 23 17 9 9 11 18 20 9 15 11 18 12 7 4 4 15 18 22 23 29 31 35 28 29 27 21 18 22 18 12 10 4 3 9 18 19 23 24 22 14 22 23
Wind_Direction_500mb
296 309 300 288 248 241 266 100 119 87 87 48 18 341 13 29 10 52 138 143 151 159 169 165 159 157 159 160 160 156 152 146 139 133 131 130 129 127 128 129 129 129 124 120 118 123 126 123 112
272 285 279 273 266 258 97 91 81 29 61 67 335 263 230 89 48 109 141 151 154 160 165 167 162 160 159 160 159 157 155 149 143 139 137 136 138 138 139 140 145 149 146 141 136 136 144 143 141
282 269 270 246 244 268 105 102 58 22 38 108 247 195 19 39 54 133 155 154 157 154 158 167 163 163 160 160 161 161 157 153 148 142 141 142 144 147 149 146 150 162 169 170 165 160 159 165 180
260 235 243 258 250 253 16 59 50 292 143 166 235 108 97 52 70 153 150 154 157 157 160 164 167 166 164 165 168 167 162 157 151 143 141 146 153 156 159 160 166 182 191 187 187 186 183 185 188
237 262 255 225 249 77 16 347 306 285 162 147 216 99 80 56 110 141 152 156 154 158 169 171 170 170 170 173 176 174 167 162 158 149 145 145 146 150 150 157 199 236 223 199 196 196 199 202 213
241 258 252 235 217 94 199 292 294 284 94 152 193 130 75 104 122 143 153 157 160 160 171 175 173 175 177 179 182 181 176 170 166 160 152 142 139 145 153 161 213 233 217 198 195 199 203 209 216
258 244 265 310 125 171 31 302 330 314 246 144 60 119 119 130 142 147 155 157 164 167 168 176 178 180 183 184 186 188 186 181 179 177 169 156 149 155 155 348 358 60 155 183 189 194 200 206 213
280 287 270 246 208 181 82 283 338 306 57 81 238 162 140 148 148 151 157 161 169 174 177 175 177 185 187 189 191 194 193 193 194 195 191 187 189 187 166 14 45 55 74 112 165 185 198 208 211
250 257 250 198 262 108 101 288 35 270 245 233 70 76 128 149 154 157 162 170 176 180 183 182 180 185 184 192 197 197 200 202 205 208 205 202 203 301 309 162 247 102 87 93 100 111 136 180 179
245 260 338 29 18 338 340 305 340 267 173 159 129 113 132 150 162 167 173 179 183 185 187 188 186 190 186 195 205 204 208 210 212 215 215 201 173 218 212 266 204 156 121 110 102 96 89 82 191
227 262 66 155 314 309 305 273 333 285 121 73 175 126 143 157 171 181 187 190 192 191 191 193 192 195 191 190 200 200 206 209 217 212 219 194 220 231 206 240 240 191 170 163 116 77 12 301 251
266 289 300 34 294 274 284 349 280 287 58 9 48 63 156 166 179 192 199 199 199 200 200 198 201 199 195 199 197 200 200 215 216 220 219 211 208 227 211 222 229 206 248 196 226 243 232 240 274
247 164 231 246 270 271 299 268 279 286 69 337 37 205 195 182 193 207 215 213 209 205 206 205 204 200 198 194 202 197 211 214 216 221 226 212 222 220 224 221 219 236 219 237 227 225 250 251 263
71 302 256 260 269 270 275 273 253 254 65 294 277 255 234 235 222 212 226 230 221 218 211 210 209 209 201 193 199 198 219 214 211 215 219 228 219 223 220 223 227 228 228 233 241 247 247 258 262
243 249 219 225 215 257 294 256 243 248 65 302 276 272 292 276 263 243 245 231 238 225 218 215 210 215 215 207 207 223 224 219 223 218 213 218 223 219 214 230 234 234 233 231 237 253 258 255 258
243 236 252 152 207 147 258 278 153 79 307 297 274 287 295 292 290 276 259 242 240 231 222 215 215 214 227 212 220 218 215 222 223 226 227 217 216 214 242 221 235 243 242 241 237 245 257 254 251
207 260 210 147 164 342 235 293 99 247 323 281 303 327 316 319 303 345 332 318 241 233 227 219 214 212 218 222 214 221 228 224 221 225 227 229 216 219 228 230 237 243 242 246 243 243 249 260 264
264 223 187 267 140 234 275 254 263 257 287 49 342 22 9 358 18 2 352 326 315 247 229 227 216 214 218 220 213 217 220 225 217 218 222 233 220 216 228 231 234 235 241 243 240 244 242 249 261
332 298 285 296 3 279 271 280 275 250 151 44 41 35 18 20 13 9 4 354 327 295 260 230 222 219 211 216 219 216 221 228 230 229 225 220 233 217 235 230 228 236 228 222 213 238 249 246 255
273 265 246 291 237 280 284 266 259 238 92 61 52 46 31 23 18 11 9 357 356 5 287 264 238 225 220 217 220 224 227 231 237 227 241 229 231 225 236 242 230 221 218 227 230 239 262 250 234
231 301 342 315 317 269 248 259 223 126 122 90 60 41 38 30 25 19 15 13 358 296 241 275 258 245 234 217 227 225 222 224 227 226 227 238 225 229 227 228 225 226 230 245 264 262 262 254 251
294 86 285 283 285 286 1 284 171 155 146 101 50 41 32 32 34 32 30 28 21 5 315 234 228 229 236 232 226 229 227 228 228 224 221 226 221 212 217 222 230 234 232 253 261 287 263 262 246
297 341 290 281 274 278 267 238 298 157 145 81 56 46 38 38 41 41 48 50 48 35 24 260 223 211 221 212 225 234 226 236 229 214 201 192 207 210 218 220 224 244 261 261 246 255 257 249 243
313 286 281 261 254 252 243 232 100 113 71 76 63 51 46 46 46 52 55 53 58 42 47 54 65 108 198 211 214 223 208 210 211 210 201 204 224 233 208 219 236 238 244 257 269 260 247 235 228
251 297 287 247 215 250 111 211 69 103 78 57 55 42 46 44 54 56 51 45 51 47 34 46 55 58 53 69 83 148 198 153 199 220 211 168 169 162 140 179 233 225 210 247 251 265 266 247 242
303 304 290 298 290 314 139 237 110 101 92 65 59 69 38 48 64 72 68 58 61 52 58 40 44 51 47 41 48 50 66 67 85 105 129 156 181 183 183 260 352 340 280 246 244 249 257 262 254
18 259 14 306 279 263 277 104 141 144 126 78 51 99 48 71 109 92 75 56 53 53 53 43 52 44 46 43 40 39 40 44 59 70 99 134 141 163 179 155 52 306 270 278 270 264 255 250 255
264 349 261 211 270 272 261 254 99 160 89 48 3 77 130 125 166 139 92 57 38 38 49 56 61 59 48 39 42 38 35 40 40 35 42 28 312 214 210 248 251 269 270 267 249 275 290 278 270
200 231 218 304 301 287 276 290 47 56 89 354 329 330 155 175 205 198 166 55 19 11 81 89 75 52 51 36 34 41 35 26 19 14 21 12 21 63 46 297 233 258 281 272 252 241 239 276 283
280 280 295 276 270 248 284 280 61 91 44 311 288 288 224 178 220 226 230 255 332 109 119 125 96 64 41 21 11 16 15 12 10 359 351 320 331 334 272 172 274 272 282 288 294 288 267 273 278
Wind_Speed_850mb
23 25 25 33 16 18 15 32 12 20 7 15 9 16 28 21 28 9 25 27 41 44 50 47 42 37 30 29 29 27 26 24 22 20 20 20 18 16 16 15 15 15 16 18 20 23 23 24 27
13 22 26 32 21 27 10 17 23 15 19 7 5 9 6 29 22 18 32 35 46 42 50 47 43 38 33 29 30 28 25 23 21 20 18 16 15 14 13 12 10 9 11 13 16 18 19 18 15
11 17 27 25 25 31 17 16 20 9 2 9 1 1 12 18 14 20 20 46 47 42 43 46 42 38 35 33 29 27 24 22 20 17 16 14 12 10 9 9 8 7 9 10 12 14 16 15 13
11 18 25 20 32 22 17 18 7 8 5 7 2 7 20 12 5 14 39 50 46 42 40 45 41 39 36 33 31 28 24 20 18 16 14 12 10 10 8 6 5 4 6 10 13 14 13 14 13
15 23 22 22 34 16 6 6 13 7 7 3 8 12 26 14 17 28 48 49 46 43 38 47 43 41 37 34 31 28 24 21 18 16 14 11 9 6 5 3 2 3 5 10 11 14 16 15 13
25 19 23 23 26 12 6 9 14 12 4 7 11 14 16 15 25 38 45 47 44 44 39 47 44 42 39 35 31 27 24 20 18 15 12 10 8 5 3 1 1 3 4 8 13 13 14 17 16
29 17 28 20 14 13 5 17 10 13 7 14 2 13 19 19 30 40 41 42 41 40 38 47 46 45 41 37 32 27 23 20 16 13 10 7 6 5 2 1 2 1 2 5 11 13 12 14 15
23 17 28 18 11 12 9 16 12 10 23 4 7 10 31 31 37 40 40 40 39 39 37 40 42 44 43 40 35 29 25 21 19 16 13 9 5 3 2 0 4 4 6 5 8 10 11 10 11
16 18 23 10 6 16 6 13 10 4 14 14 12 23 32 41 41 40 42 40 40 39 39 38 39 38 35 32 37 34 30 27 24 20 16 11 4 3 6 2 2 5 11 13 12 10 7 8 8
22 20 9 16 17 11 6 11 12 15 14 21 26 27 35 41 42 43 44 45 44 43 42 40 41 40 37 31 31 37 34 32 28 24 20 15 10 10 11 15 4 7 10 12 11 10 14 13 3
23 25 18 7 9 12 15 20 9 12 14 31 0 33 27 33 35 37 37 37 41 42 44 44 45 47 45 40 33 32 28 27 26 26 24 18 19 19 20 10 9 9 9 5 1 5 8 7 8
22 6 7 3 2 15 17 18 22 14 26 16 9 10 20 23 27 32 32 34 36 41 44 45 46 48 44 37 34 29 30 27 26 27 30 24 23 20 14 14 11 11 13 9 11 8 10 6 8
20 8 7 10 13 15 14 26 19 16 13 7 3 6 11 18 21 22 26 28 31 39 43 46 47 49 51 49 38 31 32 31 28 27 29 27 23 21 18 17 17 13 13 12 11 9 7 8 7
5 7 15 13 17 12 16 23 20 24 3 12 7 10 9 12 15 21 21 24 27 30 40 46 48 52 50 51 43 39 32 35 36 31 29 32 27 25 22 22 20 20 18 14 14 15 13 11 12
18 22 27 21 10 12 11 23 30 31 2 17 20 12 9 14 18 18 18 25 26 30 36 43 47 52 56 62 55 45 50 42 35 34 37 34 36 30 29 24 23 24 23 22 19 18 19 16 20
24 26 26 26 9 13 18 24 24 3 6 19 22 16 13 18 21 24 20 21 22 29 33 39 44 50 52 49 58 61 42 35 35 33 35 38 35 38 30 26 25 24 26 25 22 22 22 23 20
21 28 18 19 9 9 16 25 20 4 5 16 10 12 18 18 17 21 24 21 20 26 30 36 43 46 46 47 41 42 40 40 38 36 35 35 34 31 35 25 25 28 27 28 26 24 24 26 22
8 12 10 16 16 9 22 23 7 8 6 4 8 18 21 17 25 29 31 28 27 16 24 29 38 43 43 35 41 39 41 40 39 37 36 39 35 35 36 36 32 26 26 28 25 26 25 19 26
15 11 15 7 6 11 25 23 13 16 9 10 21 19 21 25 31 34 28 26 22 17 14 24 31 39 44 42 39 40 39 37 35 36 37 55 47 40 44 34 28 30 25 28 23 21 28 25 21
9 15 16 8 8 15 25 27 22 14 21 14 19 20 26 32 32 40 39 29 20 10 12 22 28 35 39 41 41 37 37 36 37 38 41 41 50 39 41 44 45 40 39 38 35 23 26 36 31
16 15 16 18 22 32 32 37 31 25 24 16 18 24 31 33 35 37 41 36 25 11 5 6 23 31 40 41 37 37 35 37 37 36 36 38 39 41 42 44 44 46 43 41 48 52 47 56 37
26 13 12 21 22 22 5 14 16 35 30 18 18 27 29 31 32 35 39 41 39 28 12 15 18 23 33 42 39 41 38 38 38 35 38 37 37 37 36 40 40 42 36 37 35 46 54 43 34
22 16 23 27 27 28 34 21 1 38 30 17 22 27 29 28 31 34 37 40 46 42 23 2 16 24 25 31 34 35 43 34 34 34 37 40 38 42 39 37 38 36 37 41 37 54 61 58 37
20 27 31 32 31 28 40 21 14 11 18 12 21 26 25 25 25 27 32 37 49 51 45 36 14 9 13 19 34 30 29 30 39 39 31 25 31 28 31 31 35 32 26 26 27 28 46 36 50
20 24 20 17 21 16 17 11 20 20 16 16 18 22 22 21 20 23 28 32 42 47 50 38 46 37 39 29 20 9 10 14 19 33 33 31 34 18 14 6 29 24 18 22 26 33 38 61 66
24 14 16 27 23 18 21 14 18 18 17 15 19 18 15 16 16 23 25 29 32 40 43 42 34 34 37 40 39 34 26 28 21 24 14 6 10 11 10 8 27 16 10 20 31 37 37 40 50
19 17 17 19 31 25 31 20 23 16 13 11 8 14 10 9 9 17 21 22 28 30 30 31 33 35 38 36 39 40 33 28 20 17 12 13 14 12 11 7 3 19 4 9 21 27 35 37 38
18 19 13 16 15 23 23 18 4 21 10 7 10 10 12 5 11 14 18 18 13 19 20 21 28 24 28 28 29 28 29 29 25 19 14 12 5 9 12 20 24 25 15 17 19 14 23 28 36
11 11 15 14 19 16 20 7 15 13 12 10 15 11 14 17 14 14 6 4 10 10 6 17 24 27 29 26 27 28 30 30 26 19 16 12 7 8 12 7 15 20 21 25 27 28 27 22 28
19 25 23 16 20 15 20 23 17 9 9 11 18 20 9 15 11 18 12 7 4 4 15 18 22 23 29 31 35 28 29 27 21 18 22 18 12 10 4 3 9 18 19 23 24 22 14 22 23
Wind_Direction_850mb
296 309 300 288 248 241 266 100 119 87 87 48 18 341 13 29 10 52 138 143 151 159 169 165 159 157 159 160 160 156 152 146 139 133 131 130 129 127 128 129 129 129 124 120 118 123 126 123 112
272 285 279 273 266 258 97 91 81 29 61 67 335 263 230 89 48 109 141 151 154 160 165 167 162 160 159 160 159 157 155 149 143 139 137 136 138 138 139 140 145 149 146 141 136 136 144 143 141
282 269 270 246 244 268 105 102 58 22 38 108 247 195 19 39 54 133 155 154 157 154 158 167 163 163 160 160 161 161 157 153 148 142 141 142 144 147 149 146 150 162 169 170 165 160 159 165 180
260 235 243 258 250 253 16 59 50 292 143 166 235 108 97 52 70 153 150 154 157 157 160 164 167 166 164 165 168 167 162 157 151 143 141 146 153 156 159 160 166 182 191 187 187 186 183 185 188
237 262 255 225 249 77 16 347 306 285 162 147 216 99 80 56 110 141 152 156 154 158 169 171 170 170 170 173 176 174 167 162 158 149 145 145 146 150 150 157 199 236 223 199 196 196 199 202 213
241 258 252 235 217 94 199 292 294 284 94 152 193 130 75 104 122 143 153 157 160 160 171 175 173 175 177 179 182 181 176 170 166 160 152 142 139 145 153 161 213 233 217 198 195 199 203 209 216
258 244 265 310 125 171 31 302 330 314 246 144 60 119 119 130 142 147 155 157 164 167 168 176 178 180 183 184 186 188 186 181 179 177 169 156 149 155 155 348 358 60 155 183 189 194 200 206 213
280 287 270 246 208 181 82 283 338 306 57 81 238 162 140 148 148 151 157 161 169 174 177 175 177 185 187 189 191 194 193 193 194 195 191 187 189 187 166 14 45 55 74 112 165 185 198 208 211
250 257 250 198 262 108 101 288 35 270 245 233 70 76 128 149 154 157 162 170 176 180 183 182 180 185 184 192 197 197 200 202 205 208 205 202 203 301 309 162 247 102 87 93 100 111 136 180 179
245 260 338 29 18 338 340 305 340 267 173 159 129 113 132 150 162 167 173 179 183 185 187 188 186 190 186 195 205 204 208 210 212 215 215 201 173 218 212 266 204 156 121 110 102 96 89 82 191
227 262 66 155 314 309 305 273 333 285 121 73 175 126 143 157 171 181 187 190 192 191 191 193 192 195 191 190 200 200 206 209 217 212 219 194 220 231 206 240 240 191 170 163 116 77 12 301 251
266 289 300 34 294 274 284 349 280 287 58 9 48 63 156 166 179 192 199 199 199 200 200 198 201 199 195 199 197 200 200 215 216 220 219 211 208 227 211 222 229 206 248 196 226 243 232 240 274
247 164 231 246 270 271 299 268 279 286 69 337 37 205 195 182 193 207 215 213 209 205 206 205 204 200 198 194 202 197 211 214 216 221 226 212 222 220 224 221 219 236 219 237 227 225 250 251 263
71 302 256 260 269 270 275 273 253 254 65 294 277 255 234 235 222 212 226 230 221 218 211 210 209 209 201 193 199 198 219 214 211 215 219 228 219 223 220 223 227 228 228 233 241 247 247 258 262
243 249 219 225 215 257 294 256 243 248 65 302 276 272 292 276 263 243 245 231 238 225 218 215 210 215 215 207 207 223 224 219 223 218 213 218 223 219 214 230 234 234 233 231 237 253 258 255 258
243 236 252 152 207 147 258 278 153 79 307 297 274 287 295 292 290 276 259 242 240 231 222 215 215 214 227 212 220 218 215 222 223 226 227 217 216 214 242 221 235 243 242 241 237 245 257 254 251
207 260 210 147 164 342 235 293 99 247 323 281 303 327 316 319 303 345 332 318 241 233 227 219 214 212 218 222 214 221 228 224 221 225 227 229 216 219 228 230 237 243 242 246 243 243 249 260 264
264 223 187 267 140 234 275 254 263 257 287 49 342 22 9 358 18 2 352 326 315 247 229 227 216 214 218 220 213 217 220 225 217 218 222 233 220 216 228 231 234 235 241 243 240 244 242 249 261
332 298 285 296 3 279 271 280 275 250 151 44 41 35 18 20 13 9 4 354 327 295 260 230 222 219 211 216 219 216 221 228 230 229 225 220 233 217 235 230 228 236 228 222 213 238 249 246 255
273 265 246 291 237 280 284 266 259 238 92 61 52 46 31 23 18 11 9 357 356 5 287 264 238 225 220 217 220 224 227 231 237 227 241 229 231 225 236 242 230 221 218 227 230 239 262 250 234
231 301 342 315 317 269 248 259 223 126 122 90 60 41 38 30 25 19 15 13 358 296 241 275 258 245 234 217 227 225 222 224 227 226 227 238 225 229 227 228 225 226 230 245 264 262 262 254 251
294 86 285 283 285 286 1 284 171 155 146 101 50 41 32 32 34 32 30 28 21 5 315 234 228 229 236 232 226 229 227 228 228 224 221 226 221 212 217 222 230 234 232 253 261 287 263 262 246
297 341 290 281 274 278 267 238 298 157 145 81 56 46 38 38 41 41 48 50 48 35 24 260 223 211 221 212 225 234 226 236 229 214 201 192 207 210 218 220 224 244 261 261 246 255 257 249 243
313 286 281 261 254 252 243 232 100 113 71 76 63 51 46 46 46 52 55 53 58 42 47 54 65 108 198 211 214 223 208 210 211 210 201 204 224 233 208 219 236 238 244 257 269 260 247 235 228
251 297 287 247 215 250 111 211 69 103 78 57 55 42 46 44 54 56 51 45 51 47 34 46 55 58 53 69 83 148 198 153 199 220 211 168 169 162 140 179 233 225 210 247 251 265 266 247 242
303 304 290 298 290 314 139 237 110 101 92 65 59 69 38 48 64 72 68 58 61 52 58 40 44 51 47 41 48 50 66 67 85 105 129 156 181 183 183 260 352 340 280 246 244 249 257 262 254
18 259 14 306 279 263 277 104 141 144 126 78 51 99 48 71 109 92 75 56 53 53 53 43 52 44 46 43 40 39 40 44 59 70 99 134 141 163 179 155 52 306 270 278 270 264 255 250 255
264 349 261 211 270 272 261 254 99 160 89 48 3 77 130 125 166 139 92 57 38 38 49 56 61 59 48 39 42 38 35 40 40 35 42 28 312 214 210 248 251 269 270 267 249 275 290 278 270
200 231 218 304 301 287 276 290 47 56 89 354 329 330 155 175 205 198 166 55 19 11 81 89 75 52 51 36 34 41 35 26 19 14 21 12 21 63 46 297 233 258 281 272 252 241 239 276 283
280 280 295 276 270 248 284 280 61 91 44 311 288 288 224 178 220 226 230 255 332 109 119 125 96 64 41 21 11 16 15 12 10 359 351 320 331 334 272 172 274 272 282 288 294 288 267 273 278